Location: Carnetin
(48.9010°N, 2.7059°E)
Time: 12:11:59
(UTC+00:00)

CZ-4C R/B - Pass Details

Date: 23 May 2022
Orbit: 395 x 466 km, 97.7° (Epoch: 02 July)

Event Time Altitude Azimuth Distance (km) Brightness Sun altitude
Rises 20:14:12 0° 358° (N) 2,372 7.3 -6.0°
Reaches altitude 10° 20:16:44 10° 337° (NNW) 1,489 6.8 -6.3°
Maximum altitude 20:18:47 16° 296° (WNW) 1,154 6.3 -6.5°
Drops below altitude 10° 20:20:48 10° 255° (WSW) 1,462 6.0 -6.8°
Sets 20:23:15 0° 233° (SW) 2,306 6.6 -7.1°
